This is the latest recevied weather packets stored in our database for station/object KB0BDN-13. If no packets are shown the sender has not sent any weather packets the latest 10 day(s).
| Time | Temp. | Humidity | Pressure | Rain* | Wind** | Luminosity | Snow |
|---|---|---|---|---|---|---|---|
| 1777771026 | 7.78° C | 47% | 1002.6 hPa | 0 mm | - | - | - |
| 1777770126 | 8.33° C | 46% | 1002.7 hPa | 0 mm | - | - | - |
| 1777769226 | 8.89° C | 46% | 1002.7 hPa | 0 mm | - | - | - |
| 1777768326 | 8.89° C | 45% | 1003.1 hPa | 0 mm | - | - | - |
| 1777767426 | 9.44° C | 44% | 1003.2 hPa | 0 mm | - | - | - |
| 1777766526 | 9.44° C | 43% | 1003.3 hPa | 0 mm | - | - | - |
| 1777765626 | 10° C | 43% | 1003.6 hPa | 0 mm | - | - | - |
| 1777764726 | 10° C | 43% | 1003.8 hPa | 0 mm | - | - | - |
| 1777763826 | 10° C | 44% | 1003.9 hPa | 0 mm | - | - | - |
| 1777762926 | 10.56° C | 42% | 1004 hPa | 0 mm | - | - | - |
| 1777762026 | 10.56° C | 42% | 1004.2 hPa | 0 mm | - | - | - |
| 1777761126 | 10.56° C | 40% | 1004.3 hPa | 0 mm | - | - | - |
| 1777760226 | 11.11° C | 38% | 1004.3 hPa | 0 mm | - | - | - |
| 1777759325 | 12.22° C | 38% | 1004.2 hPa | 0 mm | - | - | - |
| 1777758424 | 12.22° C | 36% | 1004.4 hPa | 0 mm | - | - | - |
| 1777757524 | 12.78° C | 36% | 1004.5 hPa | 0 mm | - | - | - |
| 1777756624 | 12.78° C | 36% | 1004.7 hPa | 0 mm | - | - | - |
| 1777755724 | 13.89° C | 32% | 1005 hPa | 0 mm | - | - | - |
| 1777754824 | 13.89° C | 30% | 1005.1 hPa | 0 mm | - | - | - |
| 1777753924 | 13.33° C | 31% | 1005.3 hPa | 0 mm | - | - | - |
| 1777753024 | 12.78° C | 32% | 1005.7 hPa | 0 mm | - | - | - |
| 1777752124 | 12.78° C | 31% | 1005.8 hPa | 0 mm | - | - | - |
| 1777751224 | 13.33° C | 31% | 1006 hPa | 0 mm | - | - | - |
| 1777750323 | 13.33° C | 32% | 1006.2 hPa | 0 mm | - | - | - |
| 1777749424 | 13.33° C | 32% | 1006.4 hPa | 0 mm | - | - | - |
* Rain latest hour (hover to see other rain measurements)
** Current wind speed in m/s (hover to see current wind gust speed)